| time (UTC) | temp C | wind direction | speed KPH | gust KPH | rain 1hr cm | rain 24hr cm | rain mn cm | humidity % | barometer mb |
| 20260503053516 | 13 | 150 | 0.0 | 4.8 | 0.00 | 1.12 | 0.18 | 96 | 1010.7 |
| 20260503053036 | 13 | 150 | 0.0 | 9.7 | 0.00 | 1.12 | 0.18 | 96 | 1010.8 |
| 20260503052516 | 13 | 150 | 1.6 | 9.7 | 0.00 | 1.12 | 0.18 | 96 | 1010.8 |
| 20260503052017 | 13 | 0 | 0.0 | 6.4 | 0.00 | 1.12 | 0.18 | 96 | 1010.8 |
| 20260503051535 | 13 | 0 | 0.0 | 4.8 | 0.00 | 1.12 | 0.18 | 95 | 1010.8 |
| 20260503051015 | 13 | 0 | 0.0 | 4.8 | 0.00 | 1.12 | 0.18 | 95 | 1010.9 |
| 20260503050515 | 13 | 148 | 0.0 | 4.8 | 0.00 | 1.12 | 0.18 | 96 | 1011.0 |
| 20260503050038 | 13 | 148 | 0.0 | 4.8 | 0.00 | 1.12 | 0.18 | 96 | 1010.9 |
| 20260503045516 | 13 | 148 | 0.0 | 4.8 | 0.00 | 1.12 | 0.18 | 96 | 1010.9 |
| 20260503045020 | 13 | 0 | 0.0 | 4.8 | 0.00 | 1.12 | 0.18 | 96 | 1011.0 |
| 20260503044533 | 13 | 0 | 0.0 | 3.2 | 0.00 | 1.12 | 0.18 | 95 | 1010.9 |
| 20260503044016 | 13 | 0 | 0.0 | 3.2 | 0.00 | 1.12 | 0.18 | 95 | 1011.0 |
| 20260503043516 | 13 | 0 | 0.0 | 3.2 | 0.00 | 1.12 | 0.18 | 95 | 1011.0 |
| 20260503043031 | 13 | 147 | 0.0 | 8.0 | 0.00 | 1.12 | 0.18 | 95 | 1011.0 |
| 20260503042515 | 13 | 147 | 1.6 | 8.0 | 0.00 | 1.12 | 0.18 | 95 | 1011.0 |
| 20260503042017 | 13 | 148 | 1.6 | 4.8 | 0.00 | 1.12 | 0.18 | 95 | 1011.0 |
| 20260503041537 | 13 | 148 | 0.0 | 4.8 | 0.00 | 1.12 | 0.18 | 95 | 1011.1 |
| 20260503041014 | 13 | 0 | 0.0 | 4.8 | 0.00 | 1.12 | 0.18 | 95 | 1011.1 |
| 20260503040515 | 13 | 148 | 0.0 | 4.8 | 0.00 | 1.12 | 0.18 | 95 | 1011.0 |
| 20260503040033 | 13 | 147 | 0.0 | 4.8 | 0.00 | 1.12 | 0.18 | 95 | 1011.0 |
| 20260503035517 | 13 | 0 | 0.0 | 4.8 | 0.05 | 1.12 | 0.18 | 95 | 1011.0 |
| 20260503035017 | 13 | 0 | 0.0 | 1.6 | 0.08 | 1.12 | 0.18 | 95 | 1011.0 |
| 20260503034533 | 13 | 147 | 0.0 | 1.6 | 0.08 | 1.12 | 0.18 | 95 | 1011.0 |
| 20260503034016 | 13 | 0 | 0.0 | 1.6 | 0.10 | 1.12 | 0.18 | 95 | 1011.0 |
| 20260503033516 | 13 | 0 | 0.0 | 1.6 | 0.10 | 1.12 | 0.18 | 95 | 1011.0 |
| 20260503033036 | 13 | 0 | 0.0 | 1.6 | 0.10 | 1.12 | 0.18 | 95 | 1011.0 |
| 20260503032518 | 13 | 0 | 0.0 | 1.6 | 0.10 | 1.12 | 0.18 | 95 | 1011.1 |
| 20260503032017 | 13 | 0 | 0.0 | 3.2 | 0.10 | 1.12 | 0.18 | 95 | 1011.2 |
| 20260503031533 | 13 | 0 | 0.0 | 3.2 | 0.10 | 1.12 | 0.18 | 95 | 1011.4 |
| 20260503031018 | 13 | 0 | 0.0 | 3.2 | 0.10 | 1.12 | 0.18 | 95 | 1011.5 |
| 20260503030515 | 13 | 0 | 0.0 | 3.2 | 0.08 | 1.12 | 0.15 | 95 | 1011.4 |
| 20260503030046 | 13 | 0 | 0.0 | 4.8 | 0.08 | 1.09 | 0.13 | 95 | 1011.5 |
| 20260503025515 | 13 | 148 | 0.0 | 4.8 | 0.05 | 1.07 | 0.10 | 95 | 1011.6 |
| 20260503025016 | 14 | 149 | 0.0 | 4.8 | 0.05 | 1.04 | 0.08 | 95 | 1011.9 |
| 20260503024533 | 13 | 149 | 0.0 | 8.0 | 0.00 | 1.02 | 0.05 | 95 | 1012.0 |
| 20260503024019 | 13 | 149 | 1.6 | 8.0 | 0.00 | 1.02 | 0.05 | 95 | 1012.1 |
| 20260503023517 | 13 | 150 | 1.6 | 6.4 | 0.03 | 1.02 | 0.05 | 95 | 1012.1 |
| 20260503023032 | 13 | 150 | 0.0 | 8.0 | 0.03 | 1.02 | 0.05 | 95 | 1012.1 |
| 20260503022516 | 13 | 150 | 1.6 | 8.0 | 0.03 | 1.02 | 0.05 | 95 | 1012.1 |
| 20260503022018 | 13 | 148 | 1.6 | 6.4 | 0.03 | 1.02 | 0.05 | 95 | 1012.1 |
| 20260503021531 | 13 | 148 | 0.0 | 8.0 | 0.03 | 1.02 | 0.05 | 95 | 1012.2 |
| 20260503021017 | 13 | 148 | 1.6 | 8.0 | 0.03 | 1.02 | 0.05 | 95 | 1012.2 |
| 20260503020514 | 13 | 139 | 1.6 | 8.0 | 0.03 | 1.02 | 0.05 | 95 | 1012.2 |
| 20260503020035 | 13 | 0 | 0.0 | 3.2 | 0.03 | 1.02 | 0.05 | 95 | 1012.0 |
| 20260503015516 | 13 | 0 | 0.0 | 4.8 | 0.03 | 1.02 | 0.05 | 94 | 1012.1 |
| 20260503015017 | 13 | 0 | 0.0 | 4.8 | 0.00 | 0.99 | 0.03 | 95 | 1012.2 |
| 20260503014531 | 13 | 108 | 0.0 | 4.8 | 0.00 | 0.99 | 0.03 | 94 | 1012.2 |
| 20260503014016 | 13 | 0 | 0.0 | 4.8 | 0.00 | 0.99 | 0.03 | 94 | 1012.3 |
| 20260503013516 | 13 | 108 | 1.6 | 6.4 | 0.00 | 0.97 | 0.00 | 94 | 1012.2 |
| 20260503013037 | 13 | 0 | 0.0 | 6.4 | 0.00 | 0.97 | 0.00 | 94 | 1012.3 |
| 20260503012517 | 13 | 0 | 0.0 | 6.4 | 0.00 | 0.97 | 0.00 | 94 | 1012.3 |
| 20260503012015 | 13 | 104 | 0.0 | 3.2 | 0.00 | 0.97 | 0.00 | 94 | 1012.2 |
| 20260503011532 | 13 | 0 | 0.0 | 3.2 | 0.00 | 0.97 | 0.00 | 94 | 1012.1 |
| 20260503011016 | 13 | 0 | 0.0 | 3.2 | 0.00 | 0.97 | 0.00 | 94 | 1012.1 |
| 20260503010515 | 13 | 0 | 0.0 | 3.2 | 0.00 | 0.97 | 0.00 | 94 | 1012.1 |
| 20260503010035 | 13 | 0 | 0.0 | 3.2 | 0.00 | 0.97 | 0.00 | 94 | 1012.0 |
| 20260503005516 | 13 | 0 | 0.0 | 3.2 | 0.00 | 0.97 | 0.00 | 94 | 1012.1 |
| 20260503005019 | 13 | 0 | 0.0 | 3.2 | 0.00 | 0.97 | 0.00 | 94 | 1012.2 |
| 20260503004533 | 13 | 0 | 0.0 | 3.2 | 0.00 | 0.97 | 0.00 | 94 | 1012.3 |
| 20260503004017 | 13 | 0 | 0.0 | 3.2 | 0.00 | 0.97 | 0.00 | 94 | 1012.3 |
| 20260503003515 | 13 | 0 | 0.0 | 3.2 | 0.00 | 0.97 | 0.00 | 94 | 1012.3 |
| 20260503003029 | 13 | 0 | 0.0 | 3.2 | 0.00 | 0.97 | 0.00 | 94 | 1012.3 |
| 20260503002515 | 13 | 0 | 0.0 | 3.2 | 0.00 | 0.97 | 0.00 | 94 | 1012.4 |
| 20260503002018 | 13 | 104 | 0.0 | 3.2 | 0.00 | 0.97 | 0.00 | 94 | 1012.4 |
| 20260503001546 | 13 | 104 | 0.0 | 4.8 | 0.00 | 0.97 | 0.00 | 94 | 1012.4 |
| 20260503001017 | 13 | 0 | 0.0 | 4.8 | 0.00 | 0.97 | 0.00 | 94 | 1012.4 |
| 20260503000515 | 13 | 0 | 0.0 | 4.8 | 0.00 | 0.97 | 0.00 | 94 | 1012.4 |
| 20260503000032 | 13 | 0 | 0.0 | 3.2 | 0.00 | 0.97 | 0.00 | 94 | 1012.5 |
| 20260502235516 | 13 | 0 | 0.0 | 3.2 | 0.00 | 0.97 | 0.00 | 94 | 1012.6 |
| 20260502235015 | 13 | 0 | 0.0 | 3.2 | 0.00 | 0.97 | 0.00 | 93 | 1012.4 |
| 20260502234539 | 13 | 103 | 0.0 | 3.2 | 0.00 | 0.97 | 0.00 | 94 | 1012.5 |
| 20260502234019 | 13 | 103 | 0.0 | 4.8 | 0.00 | 0.97 | 0.00 | 93 | 1012.8 |
| 20260502233518 | 13 | 0 | 0.0 | 4.8 | 0.00 | 0.97 | 0.00 | 93 | 1012.9 |
| 20260502233032 | 13 | 0 | 0.0 | 4.8 | 0.00 | 0.97 | 0.00 | 93 | 1012.9 |
| 20260502232519 | 13 | 0 | 0.0 | 4.8 | 0.00 | 0.97 | 0.00 | 93 | 1013.0 |
| 20260502232017 | 13 | 0 | 0.0 | 4.8 | 0.00 | 0.97 | 0.00 | 93 | 1013.0 |
| 20260502231532 | 13 | 0 | 0.0 | 4.8 | 0.00 | 0.97 | 0.00 | 93 | 1012.9 |
| 20260502231016 | 13 | 0 | 0.0 | 4.8 | 0.00 | 0.97 | 0.00 | 93 | 1012.8 |
| 20260502230536 | 13 | 103 | 0.0 | 4.8 | 0.00 | 0.97 | 0.00 | 93 | 1012.9 |
| 20260502230039 | 13 | 0 | 0.0 | 6.4 | 0.00 | 0.97 | 0.00 | 92 | 1013.1 |
| 20260502225515 | 13 | 0 | 0.0 | 6.4 | 0.03 | 0.97 | 0.00 | 92 | 1013.1 |
| 20260502225020 | 13 | 0 | 1.6 | 6.4 | 0.03 | 0.97 | 0.00 | 92 | 1013.1 |
| 20260502224534 | 13 | 0 | 0.0 | 4.8 | 0.05 | 0.97 | 0.00 | 92 | 1013.2 |
| 20260502224015 | 13 | 0 | 0.0 | 6.4 | 0.05 | 0.97 | 0.00 | 92 | 1013.2 |
| 20260502223515 | 13 | 99 | 0.0 | 9.7 | 0.08 | 0.97 | 0.00 | 92 | 1013.0 |
| 20260502223033 | 13 | 100 | 1.6 | 9.7 | 0.10 | 0.97 | 0.00 | 91 | 1013.1 |
| 20260502222517 | 13 | 99 | 0.0 | 6.4 | 0.13 | 0.97 | 0.00 | 91 | 1013.1 |
| 20260502222016 | 13 | 98 | 0.0 | 9.7 | 0.18 | 0.97 | 0.00 | 91 | 1013.2 |
| 20260502221539 | 13 | 0 | 1.6 | 9.7 | 0.20 | 0.97 | 0.00 | 91 | 1013.2 |
| 20260502221015 | 13 | 89 | 1.6 | 9.7 | 0.25 | 0.94 | 0.00 | 91 | 1013.2 |
| 20260502220517 | 13 | 78 | 3.2 | 9.7 | 0.56 | 0.94 | 0.00 | 91 | 1013.3 |
| 20260502220031 | 13 | 97 | 1.6 | 6.4 | 0.84 | 0.94 | 0.00 | 90 | 1013.4 |
| 20260502215516 | 13 | 96 | 1.6 | 6.4 | 0.94 | 0.94 | 0.94 | 90 | 1013.4 |
| 20260502215017 | 13 | 92 | 3.2 | 12.9 | 0.94 | 0.94 | 0.94 | 90 | 1013.5 |
| 20260502214529 | 13 | 92 | 3.2 | 12.9 | 0.91 | 0.91 | 0.91 | 89 | 1013.6 |
| 20260502214015 | 13 | 71 | 3.2 | 12.9 | 0.89 | 0.89 | 0.89 | 88 | 1013.7 |
| 20260502213515 | 13 | 100 | 3.2 | 12.9 | 0.86 | 0.86 | 0.86 | 88 | 1013.6 |
| 20260502213032 | 13 | 99 | 1.6 | 12.9 | 0.84 | 0.84 | 0.84 | 87 | 1013.9 |
| 20260502212518 | 13 | 103 | 1.6 | 9.7 | 0.81 | 0.81 | 0.81 | 86 | 1013.9 |
| 20260502212016 | 14 | 99 | 1.6 | 9.7 | 0.79 | 0.79 | 0.79 | 85 | 1014.2 |
| 20260502211533 | 14 | 101 | 0.0 | 11.3 | 0.74 | 0.74 | 0.74 | 84 | 1014.5 |
| 20260502211018 | 15 | 113 | 3.2 | 12.9 | 0.66 | 0.66 | 0.66 | 81 | 1014.8 |
| 20260502210514 | 15 | 0 | 1.6 | 12.9 | 0.28 | 0.28 | 0.28 | 78 | 1015.0 |
| 20260502210031 | 16 | 184 | 6.4 | 11.3 | 0.08 | 0.08 | 0.08 | 74 | 1015.2 |
| 20260502205517 | 15 | 213 | 3.2 | 11.3 | 0.00 | 0.00 | 0.00 | 72 | 1015.0 |
| 20260502205016 | 15 | 272 | 3.2 | 9.7 | 0.00 | 0.00 | 0.00 | 72 | 1014.9 |
| 20260502204533 | 15 | 0 | 0.0 | 3.2 | 0.00 | 0.00 | 0.00 | 71 | 1014.0 |
| 20260502204018 | 15 | 25 | 0.0 | 3.2 | 0.00 | 0.00 | 0.00 | 70 | 1014.0 |
| 20260502203518 | 15 | 0 | 0.0 | 4.8 | 0.00 | 0.00 | 0.00 | 70 | 1014.0 |
| 20260502203032 | 15 | 25 | 0.0 | 6.4 | 0.00 | 0.00 | 0.00 | 70 | 1014.0 |
| 20260502202515 | 15 | 24 | 1.6 | 6.4 | 0.00 | 0.00 | 0.00 | 70 | 1014.1 |
| 20260502202015 | 14 | 25 | 0.0 | 4.8 | 0.00 | 0.00 | 0.00 | 72 | 1014.1 |
| 20260502201541 | 14 | 25 | 0.0 | 3.2 | 0.00 | 0.00 | 0.00 | 73 | 1014.0 |
| 20260502201015 | 13 | 0 | 0.0 | 3.2 | 0.00 | 0.00 | 0.00 | 74 | 1014.0 |
| 20260502200518 | 13 | 25 | 0.0 | 1.6 | 0.00 | 0.00 | 0.00 | 74 | 1014.2 |
| 20260502200031 | 13 | 0 | 0.0 | 0.0 | 0.00 | 0.00 | 0.00 | 74 | 1014.3 |
| 20260502195515 | 14 | 0 | 0.0 | 1.6 | 0.00 | 0.00 | 0.00 | 74 | 1014.2 |
| 20260502195015 | 14 | 0 | 0.0 | 1.6 | 0.00 | 0.00 | 0.00 | 73 | 1014.4 |
| 20260502194529 | 14 | 0 | 0.0 | 0.0 | 0.00 | 0.00 | 0.00 | 72 | 1014.4 |
| 20260502194016 | 14 | 0 | 0.0 | 1.6 | 0.00 | 0.00 | 0.00 | 71 | 1014.4 |
| 20260502193516 | 15 | 0 | 0.0 | 1.6 | 0.00 | 0.00 | 0.00 | 70 | 1014.5 |
| 20260502193032 | 15 | 0 | 0.0 | 4.8 | 0.00 | 0.00 | 0.00 | 69 | 1014.5 |
| 20260502192516 | 15 | 0 | 0.0 | 4.8 | 0.00 | 0.00 | 0.00 | 70 | 1014.6 |
| 20260502192016 | 15 | 0 | 0.0 | 0.0 | 0.00 | 0.00 | 0.00 | 70 | 1014.7 |
| 20260502191534 | 15 | 0 | 0.0 | 3.2 | 0.00 | 0.00 | 0.00 | 69 | 1014.7 |
| 20260502191016 | 15 | 0 | 0.0 | 3.2 | 0.00 | 0.00 | 0.00 | 69 | 1014.7 |
| 20260502190516 | 15 | 0 | 1.6 | 3.2 | 0.00 | 0.00 | 0.00 | 69 | 1014.6 |
| 20260502190037 | 15 | 25 | 1.6 | 3.2 | 0.00 | 0.00 | 0.00 | 69 | 1014.6 |
| 20260502185515 | 15 | 0 | 0.0 | 4.8 | 0.00 | 0.00 | 0.00 | 69 | 1014.6 |
| 20260502185015 | 15 | 0 | 0.0 | 4.8 | 0.00 | 0.00 | 0.00 | 69 | 1014.5 |
| 20260502184544 | 15 | 25 | 1.6 | 6.4 | 0.00 | 0.00 | 0.00 | 67 | 1014.5 |
| 20260502184014 | 16 | 0 | 1.6 | 6.4 | 0.00 | 0.00 | 0.00 | 67 | 1014.6 |
| 20260502183516 | 16 | 24 | 1.6 | 6.4 | 0.00 | 0.00 | 0.00 | 66 | 1014.5 |
| 20260502183043 | 16 | 24 | 1.6 | 6.4 | 0.00 | 0.00 | 0.00 | 65 | 1014.6 |
| 20260502182516 | 16 | 25 | 1.6 | 6.4 | 0.00 | 0.00 | 0.00 | 65 | 1014.7 |
| 20260502182015 | 16 | 25 | 1.6 | 4.8 | 0.00 | 0.00 | 0.00 | 65 | 1014.7 |
| 20260502181540 | 16 | 25 | 1.6 | 4.8 | 0.00 | 0.00 | 0.00 | 65 | 1014.7 |
| 20260502181015 | 17 | 26 | 1.6 | 6.4 | 0.00 | 0.00 | 0.00 | 64 | 1014.7 |
| 20260502180515 | 17 | 26 | 1.6 | 6.4 | 0.00 | 0.00 | 0.00 | 63 | 1014.7 |
| 20260502170517 | 18 | 0 | 0.0 | 3.2 | 0.00 | 0.00 | 0.00 | 61 | 1015.3 |
| 20260502164015 | 19 | 34 | 0.0 | 6.4 | 0.00 | 0.00 | 0.00 | 60 | 1015.7 |
| 20260502163515 | 20 | 34 | 1.6 | 4.8 | 0.00 | 0.00 | 0.00 | 59 | 1015.7 |
| 20260502163032 | 20 | 34 | 0.0 | 9.7 | 0.00 | 0.00 | 0.00 | 59 | 1015.7 |
| 20260502162515 | 20 | 34 | 1.6 | 9.7 | 0.00 | 0.00 | 0.00 | 58 | 1015.9 |
| 20260502162015 | 20 | 0 | 0.0 | 6.4 | 0.00 | 0.00 | 0.00 | 58 | 1016.0 |
| 20260502161531 | 20 | 223 | 0.0 | 3.2 | 0.00 | 0.00 | 0.00 | 58 | 1016.0 |
| 20260502161015 | 21 | 223 | 0.0 | 3.2 | 0.00 | 0.00 | 0.00 | 57 | 1016.0 |
| 20260502160520 | 21 | 223 | 0.0 | 4.8 | 0.00 | 0.00 | 0.00 | 56 | 1016.0 |
| 20260502152016 | 22 | 0 | 0.0 | 4.8 | 0.00 | 0.00 | 0.00 | 51 | 1016.2 |
| 20260502151537 | 22 | 223 | 0.0 | 4.8 | 0.00 | 0.00 | 0.00 | 53 | 1016.3 |
| 20260502151015 | 22 | 221 | 0.0 | 6.4 | 0.00 | 0.00 | 0.00 | 52 | 1016.3 |
| 20260502150515 | 22 | 221 | 0.0 | 6.4 | 0.00 | 0.00 | 0.00 | 52 | 1016.3 |
| 20260502130516 | 22 | 208 | 1.6 | 11.3 | 0.00 | 0.00 | 0.00 | 60 | 1017.5 |
| 20260502123517 | 21 | 153 | 1.6 | 9.7 | 0.00 | 0.00 | 0.00 | 67 | 1017.7 |
| 20260502123036 | 21 | 181 | 1.6 | 9.7 | 0.00 | 0.00 | 0.00 | 67 | 1017.7 |
| 20260502122514 | 22 | 0 | 1.6 | 6.4 | 0.00 | 0.00 | 0.00 | 66 | 1017.7 |
| 20260502122015 | 21 | 184 | 1.6 | 8.0 | 0.00 | 0.00 | 0.00 | 69 | 1017.8 |
| 20260502121542 | 21 | 188 | 1.6 | 8.0 | 0.00 | 0.00 | 0.00 | 68 | 1017.9 |
| 20260502121016 | 21 | 186 | 3.2 | 8.0 | 0.00 | 0.00 | 0.00 | 66 | 1017.9 |
| 20260502120514 | 22 | 292 | 1.6 | 6.4 | 0.00 | 0.00 | 0.00 | 68 | 1017.9 |
| 20260502115515 | 21 | 0 | 1.6 | 8.0 | 0.00 | 0.00 | 0.00 | 70 | 1018.0 |
| 20260502115015 | 21 | 311 | 1.6 | 9.7 | 0.00 | 0.00 | 0.00 | 68 | 1018.0 |
| 20260502114528 | 21 | 150 | 3.2 | 16.1 | 0.00 | 0.00 | 0.00 | 69 | 1018.1 |
| 20260502114016 | 21 | 147 | 3.2 | 16.1 | 0.00 | 0.00 | 0.00 | 69 | 1018.2 |
| 20260502113516 | 21 | 213 | 3.2 | 12.9 | 0.00 | 0.00 | 0.00 | 72 | 1018.3 |
| 20260502113033 | 20 | 161 | 4.8 | 12.9 | 0.00 | 0.00 | 0.00 | 73 | 1018.3 |
| 20260502112515 | 20 | 161 | 4.8 | 14.5 | 0.00 | 0.00 | 0.00 | 72 | 1018.5 |
| 20260502112015 | 20 | 170 | 3.2 | 14.5 | 0.00 | 0.00 | 0.00 | 74 | 1018.5 |
| 20260502111532 | 20 | 158 | 4.8 | 14.5 | 0.00 | 0.00 | 0.00 | 74 | 1018.6 |
| 20260502111016 | 20 | 147 | 1.6 | 11.3 | 0.00 | 0.00 | 0.00 | 75 | 1018.5 |
| 20260502110514 | 20 | 240 | 3.2 | 11.3 | 0.00 | 0.00 | 0.00 | 73 | 1018.5 |
| 20260502110033 | 20 | 219 | 1.6 | 9.7 | 0.00 | 0.00 | 0.00 | 73 | 1018.5 |
| 20260502105516 | 20 | 246 | 1.6 | 9.7 | 0.00 | 0.00 | 0.00 | 74 | 1018.6 |
| 20260502105015 | 21 | 269 | 1.6 | 9.7 | 0.00 | 0.00 | 0.00 | 73 | 1018.7 |
| 20260502104531 | 21 | 284 | 3.2 | 12.9 | 0.00 | 0.00 | 0.00 | 72 | 1018.6 |
| 20260502104016 | 20 | 274 | 3.2 | 14.5 | 0.00 | 0.00 | 0.00 | 74 | 1018.6 |
| 20260502103514 | 20 | 105 | 1.6 | 14.5 | 0.00 | 0.00 | 0.00 | 74 | 1018.7 |
| 20260502103032 | 20 | 139 | 1.6 | 11.3 | 0.00 | 0.00 | 0.00 | 73 | 1018.6 |
| 20260502102514 | 20 | 311 | 3.2 | 9.7 | 0.00 | 0.00 | 0.00 | 76 | 1018.7 |
| 20260502102014 | 20 | 290 | 1.6 | 9.7 | 0.00 | 0.00 | 0.00 | 73 | 1018.7 |
| 20260502101542 | 20 | 221 | 1.6 | 8.0 | 0.00 | 0.00 | 0.00 | 75 | 1018.7 |
| 20260502101013 | 20 | 253 | 1.6 | 6.4 | 0.00 | 0.00 | 0.00 | 76 | 1018.7 |
| 20260502100520 | 20 | 248 | 1.6 | 11.3 | 0.00 | 0.00 | 0.00 | 75 | 1018.7 |
| 20260502091528 | 18 | 275 | 1.6 | 6.4 | 0.00 | 0.00 | 0.00 | 81 | 1018.8 |
| 20260502091015 | 18 | 284 | 1.6 | 11.3 | 0.00 | 0.00 | 0.00 | 82 | 1019.1 |
| 20260502090516 | 18 | 207 | 1.6 | 11.3 | 0.00 | 0.00 | 0.00 | 81 | 1019.0 |
| 20260502071532 | 13 | 0 | 0.0 | 0.0 | 0.00 | 0.00 | 0.00 | 89 | 1018.6 |
| 20260502071014 | 13 | 0 | 0.0 | 0.0 | 0.00 | 0.00 | 0.00 | 88 | 1018.5 |
| 20260502070517 | 13 | 0 | 0.0 | 0.0 | 0.00 | 0.00 | 0.00 | 88 | 1018.4 |
| 20260502070033 | 13 | 0 | 0.0 | 0.0 | 0.00 | 0.00 | 0.00 | 87 | 1018.5 |
| 20260502065515 | 13 | 0 | 0.0 | 0.0 | 0.00 | 0.00 | 0.00 | 87 | 1018.5 |
| 20260502065015 | 13 | 0 | 0.0 | 0.0 | 0.00 | 0.00 | 0.00 | 86 | 1018.6 |
| 20260502064532 | 13 | 0 | 0.0 | 0.0 | 0.00 | 0.00 | 0.00 | 86 | 1018.8 |
| 20260502064015 | 13 | 0 | 0.0 | 0.0 | 0.00 | 0.00 | 0.00 | 85 | 1018.7 |
| 20260502063515 | 13 | 0 | 0.0 | 0.0 | 0.00 | 0.00 | 0.00 | 85 | 1018.8 |
| 20260502063030 | 13 | 0 | 0.0 | 0.0 | 0.00 | 0.00 | 0.00 | 85 | 1018.7 |
| 20260502062515 | 13 | 0 | 0.0 | 0.0 | 0.00 | 0.00 | 0.00 | 83 | 1018.8 |
| 20260502062018 | 14 | 0 | 0.0 | 0.0 | 0.00 | 0.00 | 0.00 | 82 | 1018.8 |
| 20260502061529 | 14 | 0 | 0.0 | 0.0 | 0.00 | 0.00 | 0.00 | 81 | 1018.9 |
| 20260502061014 | 14 | 0 | 0.0 | 0.0 | 0.00 | 0.00 | 0.00 | 80 | 1018.9 |
| 20260502060517 | 14 | 0 | 0.0 | 0.0 | 0.00 | 0.00 | 0.00 | 80 | 1018.8 |
| 20260502060031 | 14 | 0 | 0.0 | 0.0 | 0.00 | 0.00 | 0.00 | 82 | 1018.8 |
| 20260502055515 | 13 | 0 | 0.0 | 0.0 | 0.00 | 0.00 | 0.00 | 82 | 1018.7 |
| 20260502055017 | 13 | 0 | 0.0 | 0.0 | 0.00 | 0.00 | 0.00 | 82 | 1018.8 |
| 20260502054532 | 13 | 0 | 0.0 | 0.0 | 0.00 | 0.00 | 0.00 | 82 | 1018.8 |
| 20260502054015 | 13 | 0 | 0.0 | 0.0 | 0.00 | 0.00 | 0.00 | 81 | 1018.6 |